STARLINK-35785, 67176

Orbit data source: Space-Track

STARLINK-35785, 67176 is a payload satellite owned by SpaceX/Seattle (US) in LEO that was launched on Wed, 17 Dec 2025 UTC via an FALCON 9 launch vehicle from the Air Force Eastern Test Range (AFETR). Payload-class satellites include a variety of spacecraft equipped with specific instruments for various scientific and technological missions. These include communications satellites like Starlink; space stations such as the ISS; scientific satellites like the Hubble; Earth observation satellites from companies like Planet Labs, Umbra, and HawkEye 360; GPS; miniature CubeSats for education and research; and military/defense satellites.

Loading next visibility...
Identifier
67176, 2025-303P
Orbit
LEO
Country
Flag of USUS
Related business
Manufacturer
SpaceX/Seattle
Mission
Operational Commercial Communications
Bus & Motor
STARLINK V2MO, Unknown motor
Mass
575 kg wet, ~530 kg dry
Launch date (UTC)
2025-12-17 (6 months ago)
Launch vehicle
FALCON 9
Launch site
Air Force Eastern Test Range (AFETR)
Object type
Payload
Rocket body
Debris
Shape & HBR
Box + 2 Pan, 17.7 m
Radar Cross Section
36.964 m², Large (>1 m²)

Expand to show TLE details & history
Last TLE update: 15 hours ago

TLE from 15 hours ago
0 STARLINK-35785
1 67176U 25303P   26171.20705674  .00015032  00000-0  55431-3 0  9990
2 67176  42.9985  91.7702 0002319 265.4238  94.6349 15.27599903 28417
Epoch: 2026-06-20T04:58Z
TLE epoch observation values (Epoch: 2026-06-20T04:58:09.702Z)
Latitude
0.00001°
Longitude
108.80478°
Altitude
482.894 km
Speed
7.626 km/s
True Right ascension
06h 07m 04s
True Declination
0° 00' 00"
Sunlit
Object was in daylight at epoch
Visualization orbit readout
Latitude
Unknown
Longitude
Unknown
Altitude
Unknown
Speed
Unknown
Apparent Right ascension
Unknown
Apparent Declination
Unknown
Sunlit
N/A
Visualization observer readout
Local Sidereal Time
07:13:47
Azimuth
Unknown
Elevation
Unknown
Doppler factor
Unknown
Orbital elements
Apogee altitude
486.526 km
Perigee altitude
483.343 km
Semi-major axis
6,863.072 km
Eccentricity
0.00023
Inclination
42.9985°
RAAN
91.7702°
Arg. of periapsis
265.4238°
True anomaly
94.66139°
Mean anomaly
94.6349°
Eccentric anomaly
94.64814°
Mean motion
3.81738 °/min
Orbital period
94.31 mins
BSTAR
0.00055431
Loading maneuver chart data...
Computing Atmospheric mass density...
Loading historical data...
Loading historical data...
Loading historical data...
Loading historical data...
Loading historical data...
Loading historical data...
Loading historical data...

Documentation

Showing up to 5 results
|